Tracking 30685 objects as of 17-Jun-2025
HD Live streaming from Space Station
objects crossing your sky now

STARLINK-6303

Track STARLINK-6303 now!
10-day predictions
STARLINK-6303 is classified as:


NORAD ID: 56393
Int'l Code: 2023-061V
Perigee: 565.1 km
Apogee: 567.3 km
Inclination: 43.0 °
Period: 95.8 minutes
Semi major axis: 6937 km
RCS: Unknown
Launch date: May 4, 2023
Source: United States (US)
Launch site: AIR FORCE EASTERN TEST RANGE (AFETR)
Your satellite tracking list
Your tracking list is empty




NASA's NSSDC Master Catalog

Two Line Element Set (TLE):
1 56393U 23061V   25167.80776872  .00000645  00000-0  62819-4 0  9999
2 56393  43.0027 201.8030 0001561 273.5560  86.5104 15.02533669116764
Source of the keplerian elements: AFSPC